This demonstration page uses our WeatherBlox Daily Observations layout. Learn more.

Left ArrowRight Arrow

39.01783, -85.05884

Hourly Observations for May 20, 2019

Temp ( °F °C ) Dew Point ( °F °C ) Humidity (%) Winds ( mph kmh ) Pressure ( in mb ) Visibility ( mi km ) Precip ( " mm )
12:52 am 00:52 Cloudy 63 17.2 61 16.1 93 93 SW 6 9 29.85 1011 10 16 0.03 0.76
1:52 am 01:52 Mostly Cloudy 63 17.2 61 16.1 93 93 SSW 8 13 29.87 1011 10 16 0.00 0.00
2:52 am 02:52 Mostly Cloudy 62 16.7 60 15.6 93 93 SSW 7 11 29.87 1011 8 13 0.00 0.00
3:52 am 03:52 Mostly Cloudy 63 17.2 60 15.6 90 90 SW 7 11 29.89 1012 10 16 0.00 0.00
4:52 am 04:52 Partly Cloudy 62 16.7 59 15 90 90 WSW 6 9 29.91 1013 10 16 0.00 0.00
5:19 am 05:19 Mostly Cloudy 62 16.7 59 15 90 90 W 7 11 29.93 1013 10 16 0.00 0.00
5:52 am 05:52 Cloudy 62 16.7 58 14.4 86 86 W 8 13 29.93 1014 10 16 0.00 0.00
6:21 am 06:21 Cloudy 61 16.1 55 12.8 81 81 W 8 13 29.94 1014 10 16 0.00 0.00
6:52 am 06:52 Mostly Cloudy 60 15.6 54 12.2 80 80 W 9 15 29.95 1014 10 16 0.00 0.00
7:52 am 07:52 Mostly Cloudy 60 15.6 51 10.6 72 72 W 14 22 29.97 1015 10 16 0.00 0.00
8:52 am 08:52 Partly Cloudy 61 16.1 52 11.1 72 72 W 12 19 29.98 1015 10 16 0.00 0.00
9:52 am 09:52 Partly Cloudy 63 17.2 50 10 63 63 W 13 20 29.98 1015 10 16 0.00 0.00
10:52 am 10:52 Partly Cloudy 65 18.3 48 8.9 54 54 W 15 24 29.99 1016 10 16 0.00 0.00
11:52 am 11:52 Mostly Sunny 67 19.4 48 8.9 51 51 WSW 15 24 30.01 1016 10 16 0.00 0.00
12:52 pm 12:52 Mostly Cloudy 69 20.6 49 9.4 49 49 W 16 26 30.01 1016 10 16 0.00 0.00
1:52 pm 13:52 Partly Cloudy 70 21.1 50 10 49 49 W 10 17 30.00 1016 10 16 0.00 0.00
2:52 pm 14:52 Partly Cloudy 72 22.2 52 11.1 50 50 W 12 19 30.00 1016 10 16 0.00 0.00
3:52 pm 15:52 Partly Cloudy 71 21.7 50 10 47 47 WSW 12 19 29.99 1016 10 16 0.00 0.00
4:52 pm 16:52 Mostly Cloudy 71 21.7 50 10 47 47 W 15 24 29.99 1016 10 16 0.00 0.00
5:52 pm 17:52 Mostly Cloudy 72 22.2 51 10.6 48 48 WNW 12 19 30.01 1016 10 16 0.00 0.00
6:52 pm 18:52 Mostly Cloudy 68 20 51 10.6 55 55 NW 12 19 30.02 1017 10 16 0.00 0.00
7:52 pm 19:52 Cloudy 65 18.3 50 10 59 59 N 14 22 30.03 1017 10 16 0.00 0.00
8:52 pm 20:52 Mostly Cloudy 60 15.6 50 10 70 70 N 12 19 30.04 1017 10 16 0.00 0.00
9:52 pm 21:52 Mostly Cloudy 58 14.4 49 9.4 72 72 N 10 17 30.03 1017 10 16 0.00 0.00
10:52 pm 22:52 Mostly Cloudy 56 13.3 48 8.9 75 75 N 12 19 30.05 1018 10 16 0.00 0.00
11:52 pm 23:52 Cloudy 55 12.8 47 8.3 74 74 N 12 19 30.07 1018 10 16 0.00 0.00

Powered by AerisWeather